Time,TemperatureF,DewpointF,PressureIn,WindDirection,WindDirectionDegrees,WindSpeedMPH,WindSpeedGustMPH,Humidity,HourlyPrecipIn,Conditions,Clouds,dailyrainin,SolarRadiationWatts/m^2,SoftwareType,DateUTC
2013-12-27 00:00:00,30.0,23.0,-100.00,SW,225,6.0,-999.0,75,-99.99,,,-99.99,0.000000,,2013-12-27 05:00:00,
2013-12-27 00:42:00,30.0,23.0,-100.00,SW,225,6.0,-999.0,75,-99.99,,,-99.99,0.000000,,2013-12-27 05:42:00,
2013-12-27 00:52:00,30.0,23.0,-100.00,SW,225,6.0,-999.0,75,-99.99,,,-99.99,0.000000,,2013-12-27 05:52:00,
2013-12-27 03:00:00,32.0,25.0,-100.00,WSW,247,5.0,-999.0,76,-99.99,,,-99.99,0.000000,,2013-12-27 08:00:00,
2013-12-27 03:42:00,32.0,25.0,-100.00,WSW,247,5.0,-999.0,76,-99.99,,,-99.99,0.000000,,2013-12-27 08:42:00,
2013-12-27 03:52:00,32.0,25.0,-100.00,WSW,247,5.0,-999.0,76,-99.99,,,-99.99,0.000000,,2013-12-27 08:52:00,
2013-12-27 06:00:00,31.0,26.0,-100.00,SW,225,2.0,-999.0,81,-99.99,,,-99.99,0.000000,,2013-12-27 11:00:00,
2013-12-27 06:43:00,31.0,26.0,-100.00,SW,225,2.0,-999.0,81,-99.99,,,-99.99,0.000000,,2013-12-27 11:43:00,
2013-12-27 06:53:00,31.0,26.0,-100.00,SW,225,2.0,-999.0,81,-99.99,,,-99.99,0.000000,,2013-12-27 11:53:00,
2013-12-27 09:00:00,29.0,26.0,-100.00,SSW,202,2.0,-999.0,86,-99.99,,,-99.99,13.920000,,2013-12-27 14:00:00,
2013-12-27 09:42:00,29.0,26.0,-100.00,SSW,202,2.0,-999.0,86,-99.99,,,-99.99,13.920000,,2013-12-27 14:42:00,
2013-12-27 09:52:00,29.0,26.0,-100.00,SSW,202,2.0,-999.0,86,-99.99,,,-99.99,13.920000,,2013-12-27 14:52:00,
2013-12-27 12:00:00,36.0,27.0,-100.00,SSW,202,5.0,-999.0,70,0.04,,,-99.99,293.480011,,2013-12-27 17:00:00,
2013-12-27 12:43:00,36.0,27.0,-100.00,SSW,202,5.0,-999.0,70,0.04,,,-99.99,293.480011,,2013-12-27 17:43:00,
2013-12-27 12:52:00,36.0,27.0,-100.00,SSW,202,5.0,-999.0,70,0.04,,,-99.99,293.480011,,2013-12-27 17:52:00,
2013-12-27 15:00:00,40.0,27.0,-100.00,SSW,202,6.0,-999.0,60,-99.99,,,-99.99,279.559998,,2013-12-27 20:00:00,
2013-12-27 15:42:00,40.0,27.0,-100.00,SSW,202,6.0,-999.0,60,-99.99,,,-99.99,279.559998,,2013-12-27 20:42:00,
2013-12-27 15:52:00,40.0,27.0,-100.00,SSW,202,6.0,-999.0,60,-99.99,,,-99.99,279.559998,,2013-12-27 20:52:00,
2013-12-27 18:00:00,36.0,28.0,-100.00,SSW,202,5.0,-999.0,71,-99.99,,,-99.99,4.640000,,2013-12-27 23:00:00,
2013-12-27 18:42:00,36.0,28.0,-100.00,SSW,202,5.0,-999.0,71,-99.99,,,-99.99,4.640000,,2013-12-27 23:42:00,
2013-12-27 18:53:00,36.0,28.0,-100.00,SSW,202,5.0,-999.0,71,-99.99,,,-99.99,4.640000,,2013-12-27 23:53:00,
2013-12-27 21:00:00,36.0,29.0,-100.00,SW,225,8.0,-999.0,73,-99.99,,,-99.99,0.000000,,2013-12-28 02:00:00,
2013-12-27 21:42:00,36.0,29.0,-100.00,SW,225,8.0,-999.0,73,-99.99,,,-99.99,0.000000,,2013-12-28 02:42:00,
2013-12-27 21:52:00,36.0,29.0,-100.00,SW,225,8.0,-999.0,73,-99.99,,,-99.99,0.000000,,2013-12-28 02:52:00,